This is the latest recevied weather packets stored in our database for station/object KY0TEQ-13. If no packets are shown the sender has not sent any weather packets the latest 10 day(s).
| Time | Temp. | Humidity | Pressure | Rain* | Wind** | Luminosity | Snow |
|---|---|---|---|---|---|---|---|
| 1788523297 | 12.78° C | 65% | 1307.8 hPa | 0 mm | - | 0 W/m² | - |
| 1788522996 | 12.78° C | 66% | 1308 hPa | 0 mm | - | 0 W/m² | - |
| 1788522691 | 12.22° C | 65% | 1307.8 hPa | 0 mm | - | 0 W/m² | - |
| 1788522385 | 12.22° C | 66% | 1307.7 hPa | 0 mm | - | 0 W/m² | - |
| 1788522080 | 12.22° C | 68% | 1307.9 hPa | 0 mm | - | 0 W/m² | - |
| 1788521775 | 12.22° C | 67% | 1307.8 hPa | 0 mm | - | 0 W/m² | - |
| 1788521474 | 12.22° C | 67% | 1307.8 hPa | 0 mm | - | 0 W/m² | - |
| 1788521170 | 11.67° C | 68% | 1307.9 hPa | 0 mm | - | 0 W/m² | - |
| 1788520866 | 12.22° C | 67% | 1307.8 hPa | 0 mm | - | 0 W/m² | - |
| 1788520561 | 12.22° C | 66% | 1307.8 hPa | 0 mm | - | 0 W/m² | - |
| 1788520256 | 12.22° C | 67% | 1307.8 hPa | 0 mm | - | 0 W/m² | - |
| 1788519956 | 12.22° C | 66% | 1307.8 hPa | 0 mm | - | 0 W/m² | - |
| 1788519651 | 12.78° C | 65% | 1307.6 hPa | 0 mm | - | 0 W/m² | - |
| 1788519351 | 12.22° C | 66% | 1307.7 hPa | 0 mm | - | 0 W/m² | - |
| 1788519046 | 12.22° C | 65% | 1307.6 hPa | 0 mm | - | 0 W/m² | - |
| 1788518741 | 12.78° C | 64% | 1307.6 hPa | 0 mm | - | 0 W/m² | - |
| 1788518437 | 12.78° C | 64% | 1307.6 hPa | 0 mm | - | 0 W/m² | - |
| 1788518132 | 12.22° C | 65% | 1307.4 hPa | 0 mm | - | 0 W/m² | - |
| 1788517835 | 11.67° C | 65% | 1307.6 hPa | 0 mm | - | 0 W/m² | - |
| 1788517524 | 11.67° C | 67% | 1307.3 hPa | 0 mm | - | 0 W/m² | - |
| 1788517219 | 11.67° C | 66% | 1307.4 hPa | 0 mm | - | 0 W/m² | - |
| 1788516916 | 12.78° C | 62% | 1307.2 hPa | 0 mm | - | 0 W/m² | - |
| 1788516611 | 12.78° C | 62% | 1307.3 hPa | 0 mm | - | 0 W/m² | - |
| 1788516307 | 12.78° C | 61% | 1307.2 hPa | 0 mm | - | 0 W/m² | - |
| 1788516002 | 13.33° C | 60% | 1307.4 hPa | 0 mm | - | 0 W/m² | - |
* Rain latest hour (hover to see other rain measurements)
** Current wind speed in m/s (hover to see current wind gust speed)